This is the latest recevied weather packets stored in our database for station/object K1RFS. If no packets are shown the sender has not sent any weather packets the latest 10 day(s).
| Time | Temp. | Humidity | Pressure | Rain* | Wind** | Luminosity | Snow |
|---|---|---|---|---|---|---|---|
| 1778036969 | 11.67° C | 55% | 995.2 hPa | 0 mm | - | 0 W/m² | - |
| 1778036667 | 11.67° C | 55% | 995.2 hPa | 0 mm | - | 0 W/m² | - |
| 1778036363 | 11.67° C | 55% | 995.1 hPa | 0 mm | - | 0 W/m² | - |
| 1778036060 | 11.67° C | 54% | 995.2 hPa | 0 mm | - | 0 W/m² | - |
| 1778035757 | 11.67° C | 53% | 995 hPa | 0 mm | - | 0 W/m² | - |
| 1778035454 | 12.22° C | 53% | 995 hPa | 0 mm | - | 0 W/m² | - |
| 1778035150 | 12.22° C | 53% | 995.1 hPa | 0 mm | - | 1 W/m² | - |
| 1778034847 | 12.22° C | 52% | 994.9 hPa | 0 mm | - | 1 W/m² | - |
| 1778034543 | 12.78° C | 52% | 994.8 hPa | 0 mm | - | 2 W/m² | - |
| 1778034241 | 12.78° C | 51% | 994.8 hPa | 0 mm | - | 4 W/m² | - |
| 1778033939 | 12.78° C | 51% | 994.5 hPa | 0 mm | - | 5 W/m² | - |
| 1778033635 | 12.78° C | 50% | 994.5 hPa | 0 mm | - | 8 W/m² | - |
| 1778033332 | 13.33° C | 50% | 994.5 hPa | 0 mm | - | 10 W/m² | - |
| 1778033031 | 13.89° C | 48% | 994.5 hPa | 0 mm | - | 19 W/m² | - |
| 1778032728 | 13.89° C | 48% | 994.4 hPa | 0 mm | - | 31 W/m² | - |
| 1778032425 | 13.89° C | 48% | 994.8 hPa | 0 mm | - | 38 W/m² | - |
| 1778032122 | 13.89° C | 47% | 994.6 hPa | 0 mm | - | 47 W/m² | - |
| 1778031818 | 14.44° C | 46% | 994.6 hPa | 0 mm | - | 56 W/m² | - |
| 1778031515 | 14.44° C | 46% | 994.5 hPa | 0 mm | - | 64 W/m² | - |
| 1778031212 | 15° C | 45% | 994.8 hPa | 0 mm | - | 73 W/m² | - |
| 1778030909 | 15° C | 44% | 994.6 hPa | 0 mm | - | 83 W/m² | - |
| 1778030606 | 15° C | 45% | 994.5 hPa | 0 mm | - | 92 W/m² | - |
| 1778030303 | 15° C | 45% | 994.5 hPa | 0 mm | - | 101 W/m² | - |
| 1778030000 | 15.56° C | 44% | 994.5 hPa | 0 mm | - | 110 W/m² | - |
| 1778029697 | 15.56° C | 44% | 994.9 hPa | 0 mm | - | 120 W/m² | - |
* Rain latest hour (hover to see other rain measurements)
** Current wind speed in m/s (hover to see current wind gust speed)